Time,TemperatureF,DewpointF,PressureIn,WindDirection,WindDirectionDegrees,WindSpeedMPH,WindSpeedGustMPH,Humidity,HourlyPrecipIn,Conditions,Clouds,dailyrainin,SolarRadiationWatts/m^2,SoftwareType,DateUTC
2013-07-10 00:01:00,81.0,40.0,-100.00,ENE,63,4.0,8.0,23,0.00,,,0.00,0.000000,,2013-07-10 07:01:00,
2013-07-10 00:11:00,81.0,40.0,-100.00,ENE,63,4.0,8.0,23,0.00,,,0.00,0.000000,,2013-07-10 07:11:00,
2013-07-10 00:43:00,82.0,43.0,-100.00,ENE,57,7.0,9.0,25,0.00,,,0.00,0.000000,,2013-07-10 07:43:00,
2013-07-10 00:53:00,82.0,43.0,-100.00,ENE,57,7.0,9.0,25,0.00,,,0.00,0.000000,,2013-07-10 07:53:00,
2013-07-10 01:01:00,82.0,43.0,-100.00,ENE,57,7.0,9.0,25,0.00,,,0.00,0.000000,,2013-07-10 08:01:00,
2013-07-10 01:11:00,82.0,43.0,-100.00,ENE,57,7.0,9.0,25,0.00,,,0.00,0.000000,,2013-07-10 08:11:00,
2013-07-10 01:33:00,81.0,44.0,-100.00,ENE,73,5.0,9.0,27,0.00,,,-99.99,0.000000,,2013-07-10 08:33:00,
2013-07-10 01:42:00,81.0,44.0,-100.00,ENE,73,5.0,9.0,27,0.00,,,-99.99,0.000000,,2013-07-10 08:42:00,
2013-07-10 01:53:00,81.0,44.0,-100.00,ENE,73,5.0,9.0,27,0.00,,,-99.99,0.000000,,2013-07-10 08:53:00,
2013-07-10 02:02:00,81.0,44.0,-100.00,ENE,73,5.0,9.0,27,0.00,,,-99.99,0.000000,,2013-07-10 09:02:00,
2013-07-10 02:12:00,81.0,44.0,-100.00,ENE,73,5.0,9.0,27,0.00,,,-99.99,0.000000,,2013-07-10 09:12:00,
2013-07-10 02:13:00,79.0,47.0,-100.00,SW,214,2.0,7.0,32,0.00,,,0.00,0.000000,,2013-07-10 09:13:00,
2013-07-10 02:33:00,79.0,47.0,-100.00,SW,214,2.0,7.0,32,0.00,,,0.00,0.000000,,2013-07-10 09:33:00,
2013-07-10 02:43:00,79.0,47.0,-100.00,SW,214,2.0,7.0,32,0.00,,,0.00,0.000000,,2013-07-10 09:43:00,
2013-07-10 02:53:00,79.0,47.0,-100.00,SW,214,2.0,7.0,32,0.00,,,0.00,0.000000,,2013-07-10 09:53:00,
2013-07-10 03:01:00,79.0,47.0,-100.00,SW,214,2.0,7.0,32,0.00,,,0.00,0.000000,,2013-07-10 10:01:00,
2013-07-10 03:51:00,-999.0,-99.9,-100.00,NE,45,3.0,4.0,-999,-99.99,,,-99.99,0.000000,,2013-07-10 10:51:00,
2013-07-10 04:00:00,-999.0,-99.9,-100.00,NE,45,3.0,4.0,-999,-99.99,,,-99.99,0.000000,,2013-07-10 11:00:00,
2013-07-10 04:11:00,78.0,42.0,-100.00,NE,45,3.0,4.0,28,0.00,,,0.00,0.000000,,2013-07-10 11:11:00,
2013-07-10 10:01:00,96.0,43.0,-100.00,SSW,206,5.0,9.0,16,0.00,,,0.00,475.000000,,2013-07-10 17:01:00,
2013-07-10 10:43:00,93.0,43.0,-100.00,SW,217,5.0,13.0,18,0.00,,,0.00,456.000000,,2013-07-10 17:43:00,
2013-07-10 10:53:00,93.0,43.0,-100.00,SW,217,5.0,13.0,18,0.00,,,0.00,456.000000,,2013-07-10 17:53:00,
2013-07-10 11:02:00,93.0,43.0,-100.00,SW,217,5.0,13.0,18,0.00,,,0.00,456.000000,,2013-07-10 18:02:00,
2013-07-10 11:11:00,93.0,43.0,-100.00,SW,217,5.0,13.0,18,0.00,,,0.00,456.000000,,2013-07-10 18:11:00,
2013-07-10 11:44:00,95.0,45.0,-100.00,SW,220,5.0,10.0,18,0.00,,,0.00,462.000000,,2013-07-10 18:44:00,
2013-07-10 11:53:00,95.0,45.0,-100.00,SW,220,5.0,10.0,18,0.00,,,0.00,462.000000,,2013-07-10 18:53:00,
2013-07-10 12:01:00,95.0,45.0,-100.00,SW,220,5.0,10.0,18,0.00,,,0.00,462.000000,,2013-07-10 19:01:00,
2013-07-10 12:11:00,95.0,45.0,-100.00,SW,220,5.0,10.0,18,0.00,,,0.00,462.000000,,2013-07-10 19:11:00,
2013-07-10 12:32:00,96.0,47.0,-100.00,West,274,4.0,7.0,19,0.00,,,0.00,341.000000,,2013-07-10 19:32:00,
2013-07-10 12:42:00,96.0,47.0,-100.00,West,274,4.0,7.0,19,0.00,,,0.00,341.000000,,2013-07-10 19:42:00,
2013-07-10 12:53:00,96.0,47.0,-100.00,West,274,4.0,7.0,19,0.00,,,0.00,341.000000,,2013-07-10 19:53:00,
2013-07-10 13:01:00,96.0,47.0,-100.00,West,274,4.0,7.0,19,0.00,,,0.00,341.000000,,2013-07-10 20:01:00,
2013-07-10 13:11:00,96.0,47.0,-100.00,West,274,4.0,7.0,19,0.00,,,0.00,341.000000,,2013-07-10 20:11:00,
2013-07-10 13:32:00,96.0,47.0,-100.00,North,7,4.0,8.0,19,0.00,,,0.00,316.000000,,2013-07-10 20:32:00,
2013-07-10 13:43:00,96.0,47.0,-100.00,North,7,4.0,8.0,19,0.00,,,0.00,316.000000,,2013-07-10 20:43:00,
2013-07-10 13:52:00,96.0,47.0,-100.00,North,7,4.0,8.0,19,0.00,,,0.00,316.000000,,2013-07-10 20:52:00,
2013-07-10 14:01:00,96.0,47.0,-100.00,North,7,4.0,8.0,19,0.00,,,0.00,316.000000,,2013-07-10 21:01:00,
2013-07-10 14:11:00,96.0,47.0,-100.00,North,7,4.0,8.0,19,0.00,,,0.00,316.000000,,2013-07-10 21:11:00,
2013-07-10 14:42:00,99.0,47.0,-100.00,NW,315,3.0,8.0,17,0.00,,,0.00,368.000000,,2013-07-10 21:42:00,
2013-07-10 14:52:00,99.0,47.0,-100.00,NW,315,3.0,8.0,17,0.00,,,0.00,368.000000,,2013-07-10 21:52:00,
2013-07-10 15:01:00,99.0,47.0,-100.00,NW,315,3.0,8.0,17,0.00,,,0.00,368.000000,,2013-07-10 22:01:00,
2013-07-10 15:11:00,99.0,47.0,-100.00,NW,315,3.0,8.0,17,0.00,,,0.00,368.000000,,2013-07-10 22:11:00,
2013-07-10 15:33:00,97.0,43.0,-100.00,West,262,5.0,11.0,16,0.00,,,0.00,369.000000,,2013-07-10 22:33:00,
2013-07-10 15:43:00,97.0,43.0,-100.00,West,262,5.0,11.0,16,0.00,,,0.00,369.000000,,2013-07-10 22:43:00,
2013-07-10 15:53:00,97.0,43.0,-100.00,West,262,5.0,11.0,16,0.00,,,0.00,369.000000,,2013-07-10 22:53:00,
2013-07-10 16:01:00,97.0,43.0,-100.00,West,262,5.0,11.0,16,0.00,,,0.00,369.000000,,2013-07-10 23:01:00,
2013-07-10 16:11:00,97.0,43.0,-100.00,West,262,5.0,11.0,16,0.00,,,0.00,369.000000,,2013-07-10 23:11:00,
2013-07-10 16:52:00,102.0,46.0,-100.00,West,259,5.0,10.0,15,0.00,,,0.00,516.000000,,2013-07-10 23:52:00,
2013-07-10 17:01:00,102.0,46.0,-100.00,West,259,5.0,10.0,15,0.00,,,0.00,516.000000,,2013-07-11 00:01:00,
2013-07-10 17:11:00,102.0,46.0,-100.00,West,259,5.0,10.0,15,0.00,,,0.00,516.000000,,2013-07-11 00:11:00,
2013-07-10 17:42:00,95.0,46.0,-100.00,SW,230,4.0,11.0,19,0.00,,,0.00,207.000000,,2013-07-11 00:42:00,
2013-07-10 17:52:00,95.0,46.0,-100.00,SW,230,4.0,11.0,19,0.00,,,0.00,207.000000,,2013-07-11 00:52:00,
2013-07-10 18:01:00,95.0,46.0,-100.00,SW,230,4.0,11.0,19,0.00,,,0.00,207.000000,,2013-07-11 01:01:00,
2013-07-10 18:11:00,95.0,46.0,-100.00,SW,230,4.0,11.0,19,0.00,,,0.00,207.000000,,2013-07-11 01:11:00,
2013-07-10 18:43:00,94.0,45.0,-100.00,WNW,298,2.0,8.0,19,0.00,,,0.00,104.000000,,2013-07-11 01:43:00,
2013-07-10 18:52:00,94.0,45.0,-100.00,WNW,298,2.0,8.0,19,0.00,,,0.00,104.000000,,2013-07-11 01:52:00,
2013-07-10 19:02:00,94.0,45.0,-100.00,WNW,298,2.0,8.0,19,0.00,,,0.00,104.000000,,2013-07-11 02:02:00,
2013-07-10 19:11:00,94.0,45.0,-100.00,WNW,298,2.0,8.0,19,0.00,,,0.00,104.000000,,2013-07-11 02:11:00,
2013-07-10 19:32:00,91.0,44.0,-100.00,WSW,237,3.0,6.0,20,0.00,,,0.00,75.000000,,2013-07-11 02:32:00,
2013-07-10 19:43:00,91.0,44.0,-100.00,WSW,237,3.0,6.0,20,0.00,,,0.00,75.000000,,2013-07-11 02:43:00,
2013-07-10 19:53:00,91.0,44.0,-100.00,WSW,237,3.0,6.0,20,0.00,,,0.00,75.000000,,2013-07-11 02:53:00,
2013-07-10 20:01:00,91.0,44.0,-100.00,WSW,237,3.0,6.0,20,0.00,,,0.00,75.000000,,2013-07-11 03:01:00,
2013-07-10 20:11:00,91.0,44.0,-100.00,WSW,237,3.0,6.0,20,0.00,,,0.00,75.000000,,2013-07-11 03:11:00,
2013-07-10 20:33:00,88.0,48.0,-100.00,NNE,29,2.0,4.0,25,0.00,,,0.00,20.000000,,2013-07-11 03:33:00,
2013-07-10 20:42:00,88.0,48.0,-100.00,NNE,29,2.0,4.0,25,0.00,,,0.00,20.000000,,2013-07-11 03:42:00,
2013-07-10 20:52:00,88.0,48.0,-100.00,NNE,29,2.0,4.0,25,0.00,,,0.00,20.000000,,2013-07-11 03:52:00,
2013-07-10 21:01:00,88.0,48.0,-100.00,NNE,29,2.0,4.0,25,0.00,,,0.00,20.000000,,2013-07-11 04:01:00,
2013-07-10 21:11:00,88.0,48.0,-100.00,NNE,29,2.0,4.0,25,0.00,,,0.00,20.000000,,2013-07-11 04:11:00,
2013-07-10 21:43:00,84.0,47.0,-100.00,NE,54,5.0,6.0,28,0.00,,,0.00,0.000000,,2013-07-11 04:43:00,
2013-07-10 21:53:00,84.0,47.0,-100.00,NE,54,5.0,6.0,28,0.00,,,0.00,0.000000,,2013-07-11 04:53:00,
2013-07-10 22:01:00,84.0,47.0,-100.00,NE,54,5.0,6.0,28,0.00,,,0.00,0.000000,,2013-07-11 05:01:00,
2013-07-10 22:12:00,84.0,47.0,-100.00,NE,54,5.0,6.0,28,0.00,,,0.00,0.000000,,2013-07-11 05:12:00,
2013-07-10 22:43:00,83.0,48.0,-100.00,NE,54,5.0,7.0,30,0.00,,,0.00,0.000000,,2013-07-11 05:43:00,
2013-07-10 22:52:00,83.0,48.0,-100.00,NE,54,5.0,7.0,30,0.00,,,0.00,0.000000,,2013-07-11 05:52:00,
2013-07-10 23:01:00,83.0,48.0,-100.00,NE,54,5.0,7.0,30,0.00,,,0.00,0.000000,,2013-07-11 06:01:00,
2013-07-10 23:11:00,83.0,48.0,-100.00,NE,54,5.0,7.0,30,0.00,,,0.00,0.000000,,2013-07-11 06:11:00,
2013-07-10 23:43:00,85.0,48.0,-100.00,NE,42,5.0,7.0,28,0.00,,,0.00,0.000000,,2013-07-11 06:43:00,
2013-07-10 23:53:00,85.0,48.0,-100.00,NE,42,5.0,7.0,28,0.00,,,0.00,0.000000,,2013-07-11 06:53:00,